SCP
0 0 0 0 0 0 0 0 0 -0 -0 -0 -0 0 0 0 0 0 0 0 0 0 0 0 0 0 0 0 0 0 0 0 0 0 0 0 0 0 0 0 0 0 0
0 0 0 0 0 0 0 0 0 0 -0 -0 0 0 0 0 0 0 0 0 0 0 0 0 0 0 0 0 0 0 0 0 0 0 0 0 0 0 0 0 0 0 0
0 0 0 0 0 0 0 0 0 0 0 -0 0 0 0 0 0 0 0 0 0 0 0 0 0 0 0 0 0 0 0 0 0 0 0 0 0 0 0 0 0 0 0
0 0 0 0 0 0 0 0 0 0 -0 -0 0 0 0 0 0 0 0 0 0 0 0 0 0 0 0 0 0 0 0 0 0 0 0 0 0 0 0 0 0 0 0
0 0 0 0 0 0 0 0 0 0 0 0 0 0 0 0 0 0 0 0 0 0 0 0 0 0 0 0 0 0 0 0 0 -0 0 0 0 0 0 0 0 0 0
0 0 0 0 0 0 0 0 0 0 0 0 0 0 0 0 0 0 0 0 0 0 0 0 0 0 0 0 0 0 0 -0 0 -0 0 0 0 0 0 0 0 0 0
0 0 0 0 0 0 0 0 0 0 0 0 0 0 0 0 0 0 0 0 0 0 0 0 0 0 0 0 0 0 0 -0 0 -0 0 0 0 0 0 0 0 0 0
0 0 0 0 0 0 0 0 0 0 0 0 0 0 0 0 0 0 0 0 0 0 0 0 0 0 -0 -0 -0 0 0 0 0 0 0 0 0 0 0 0 0 0 0
0 0 0 0 0 0 0 0 0 0 0 0 0 0 0 0 0 0 0 0 0 0 0 0 -0 -0 -0 -0 -0 -0 0 0 0 0 0 0 0 0 0 0 0 0 0
-0 -0 0 0 0 0 0 0 0 0 0 0 0 0 0 0 0 0 0 0 0 0 0 0 0 -0 -0 -0 -0 -0 0 0 0 0 0 0 0 0 0 0 0 0 0
-0 -0 0 0 0 0 0 0 0 0 0 0 0 0 0 0 0 0 0 0 0 0 0 0 0 0 0 0 0 0 0 0 0 0 0 0 0 0 0 0 0 0 0
-0 -0 0 0 0 0 0 0 0 0 0 0 0 0 0 0 0 0 0 0 0 0 0 0 0 0 0 0 0 0 0 0 0 0 0 0 0 0 0 0 0 0 0
-0 -0 0 0 0 0 0 0 0 0 0 0 0 0 0 0 0 0 0 0 0 0 0 0 0 0 0 0 0 0 0 0 0 0 0 0 0 0 0 0 0 0 0
-0 -0 0 0 0 0 0 0 0 0 0 0 0 0 0 0 0 0 0 0 0 0 0 0 0 0 0 0 0 0 0 0 0 0 0 0 0 0 0 0 0 0 0
0 -0 -0 0 0 0 0 0 0 0 0 0 0 0 0 0 0 0 0 -0 -0 -0 0 0 0 -0 -0 -0 0 0 0 0 0 0 0 0 0 0 0 0 0 0 0
0 -0 -0 0 0 0 0 0 0 0 0 0 0 0 0 0 0 0 0 -0 -0 -0 0 0 0 0 0 -0 0 0 0 0 0 0 0 0 0 0 0 0 0 0 0
0 0 -0 0 0 0 0 0 0 0 0 0 0 0 0 0 0 0 0 -0 -0 -0 0 0 0 0 0 -0 -0 -0 0 0 0 0 0 0 0 0 0 0 0 0 0
0 0 0 0 0 0 0 0 0 0 0 0 0 0 0 0 0 0 0 0 0 0 0 0 0 0 0 0 0 -0 -0 0 0 0 0 0 0 0 0 0 0 0 0
0 0 0 0 0 0 0 0 0 0 0 0 0 0 0 0 0 0 0 0 0 0 0 0 0 0 0 0 0 0 -0 -0 -0 -0 0 0 0 0 0 0 0 0 0
0 0 0 0 0 0 0 0 0 0 0 0 0 0 0 0 0 0 0 0 0 0 0 0 0 0 0 0 0 0 0 0 0 -0 -0 0 0 0 0 0 0 0 0
0 0 0 0 0 0 0 0 0 0 0 0 0 0 0 0 0 0 0 0 0 0 0 0 0 0 0 0 0 0 0 0 0 -0 -0 0 0 0 0 0 0 0 0
0 0 0 0 0 0 0 0 0 0 0 0 0 0 0 0 0 0 0 0 0 0 0 0 0 0 0 0 0 0 0 0 0 -0 -0 0 0 0 0 0 0 0 0
0 0 0 0 0 0 0 0 0 0 0 0 0 0 0 0 0 0 0 0 0 0 0 0 0 0 0 0 0 0 0 0 0 0 0 -0 -0 0 0 0 0 0 0
0 0 0 0 0 0 0 0 0 0 0 0 0 0 0 0 0 0 0 0 0 0 0 0 0 0 0 0 0 0 0 0 0 0 0 0 0 0 0 0 0 0 0
0 0 0 0 0 0 0 0 0 0 0 0 0 0 0 0 0 0 0 0 0 0 0 0 0 0 0 0 0 0 0 0 0 0 0 0 0 0 0 0 0 0 0
0 0 0 0 0 0 0 0 0 0 0 0 0 0 0 0 0 0 0 0 0 0 0 0 0 0 0 0 0 0 0 0 0 0 0 0 0 0 0 0 0 0 0
Wind_Speed
9 13 13 12 15 14 11 11 9 8 7 6 6 5 7 8 8 8 7 8 8 8 7 7 7 6 7 9 9 10 11 11 11 11 11 10 8 8 9 10 9 8 10
10 13 13 13 14 13 10 10 9 9 6 5 6 6 7 9 7 7 6 6 7 6 7 7 7 6 6 8 8 10 10 10 9 9 5 3 6 7 8 8 9 8 10
10 11 12 11 12 12 11 9 10 8 4 4 5 6 7 8 8 6 6 7 7 6 7 6 6 4 6 7 7 8 8 8 7 5 3 3 6 7 7 7 8 9 11
10 9 9 9 12 11 10 9 9 7 5 5 5 6 7 7 8 6 6 7 5 5 6 5 5 3 6 6 7 7 7 7 5 3 2 3 5 9 9 9 9 9 9
9 8 7 8 12 11 10 10 8 6 5 4 5 5 6 7 8 6 5 5 5 5 4 4 4 3 4 5 4 6 6 5 1 2 4 4 4 9 9 10 11 12 11
10 7 9 10 11 9 10 9 8 7 6 6 5 5 5 6 7 6 5 3 4 5 4 3 3 2 3 3 3 5 5 2 4 2 3 2 5 9 8 8 10 10 10
8 7 10 9 9 7 8 9 8 6 6 6 5 4 3 5 5 6 4 4 5 5 4 3 2 2 2 3 3 5 4 1 4 2 3 3 7 6 7 8 9 9 9
8 7 8 8 7 6 6 8 8 7 7 7 5 4 3 4 5 5 3 3 5 4 2 2 2 3 3 2 2 4 3 2 3 2 2 4 4 4 5 6 7 7 7
8 8 7 8 8 6 6 8 7 7 6 7 6 5 4 4 5 6 5 4 5 3 2 1 2 3 4 2 2 2 2 2 3 2 1 2 1 1 3 5 4 5 6
8 8 8 7 7 8 8 8 6 5 6 7 5 5 5 5 3 5 4 6 5 3 2 1 2 2 1 1 3 4 3 3 4 1 1 2 3 2 3 3 3 4 3
9 9 8 8 7 7 6 7 6 6 8 7 6 7 6 4 4 5 5 6 4 3 2 1 1 1 1 2 4 5 5 3 3 2 1 2 4 1 2 3 3 3 3
13 12 11 10 9 7 6 6 8 8 8 9 8 8 6 5 3 2 4 4 4 3 2 1 2 1 4 4 5 6 5 4 4 3 2 2 6 5 4 4 5 6 5
15 14 13 12 11 9 7 7 6 6 7 7 9 8 6 5 4 5 4 4 4 4 4 5 5 4 4 4 4 4 5 4 4 4 3 2 8 8 7 7 7 8 8
15 15 14 15 13 12 10 8 8 7 7 7 9 10 7 5 6 6 4 4 4 4 4 4 4 5 5 6 6 6 6 5 4 4 4 5 7 9 10 10 10 10 10
16 16 16 15 16 14 12 10 10 10 10 10 9 10 9 7 7 7 6 6 5 5 5 5 6 6 6 6 6 6 7 7 7 5 4 5 8 10 11 13 14 14 12
18 17 16 17 17 16 14 13 11 10 10 9 9 11 12 10 8 8 8 7 7 7 7 7 7 6 6 6 7 8 8 8 8 8 6 6 9 11 13 15 16 16 16
18 18 18 17 17 17 16 15 12 10 10 10 11 13 14 13 11 9 9 9 8 8 9 8 8 7 7 7 8 9 8 9 9 9 9 7 8 11 15 17 18 18 18
17 18 17 14 16 17 15 14 11 11 12 11 12 12 15 15 14 11 10 10 10 9 8 8 8 8 8 8 8 8 8 8 10 11 10 9 8 8 12 17 20 20 20
19 19 18 16 17 17 15 13 12 12 12 12 12 13 15 17 17 14 11 10 11 9 9 9 8 9 8 9 9 9 9 9 11 11 12 12 12 10 10 12 16 18 20
19 18 18 16 17 16 12 11 11 12 13 13 13 14 15 15 17 15 12 13 12 10 10 10 11 10 10 9 8 9 10 10 11 11 12 13 12 12 12 12 10 11 17
18 18 19 18 18 14 12 12 12 14 13 12 13 15 16 16 17 16 13 14 13 12 13 13 12 13 11 9 7 9 11 12 13 12 12 12 12 11 11 11 9 8 7
17 18 17 17 17 15 13 12 10 8 10 13 13 15 18 18 18 15 16 13 13 12 14 15 14 11 11 10 8 6 7 11 11 9 9 9 10 8 8 8 8 7 6
11 13 13 14 14 14 14 11 10 10 10 10 13 14 16 17 17 17 17 15 14 13 13 15 15 16 13 12 12 10 7 8 3 5 7 7 7 7 8 7 8 7 7
7 7 8 9 10 11 12 13 16 13 13 14 11 11 12 15 17 18 18 17 15 13 14 14 15 14 14 10 9 11 12 9 7 8 7 7 8 8 9 8 7 7 7
9 5 5 6 8 10 12 14 14 14 14 11 10 11 13 13 15 17 17 17 16 14 15 16 15 15 13 12 10 9 10 10 10 11 11 9 9 9 9 9 7 6 6
13 10 7 5 5 6 9 13 16 18 16 14 13 12 11 10 12 16 17 17 17 16 16 16 15 15 13 12 11 10 10 10 10 10 12 12 12 10 9 8 8 7 5
Wind_Direction
153 149 162 149 136 138 137 125 122 121 117 128 126 105 98 87 77 70 52 60 65 70 74 69 69 87 89 78 80 93 90 77 69 57 45 35 37 44 39 31 3 37 32
147 150 153 147 141 137 130 127 122 118 131 145 117 113 99 91 84 74 71 73 76 74 78 71 71 82 97 92 93 102 96 82 72 60 37 60 50 46 41 38 29 39 33
148 148 152 157 145 136 133 136 130 122 157 131 128 120 106 106 89 71 68 72 76 73 79 79 80 100 102 105 106 103 97 85 72 57 315 7 69 70 65 58 45 42 40
143 149 149 147 145 141 142 138 130 140 174 143 138 133 115 110 108 87 75 76 88 101 99 98 98 115 111 111 111 108 101 88 66 314 299 27 60 70 56 50 43 38 42
139 142 113 131 147 147 146 137 148 167 174 150 126 112 105 107 108 100 84 91 109 110 114 117 113 130 120 111 106 114 99 85 55 289 46 24 40 71 55 41 40 40 33
140 137 111 129 135 146 147 150 169 186 180 157 121 102 98 103 108 113 109 117 112 117 115 125 130 157 113 106 130 116 99 90 265 67 65 43 53 64 61 56 55 48 43
141 134 124 129 136 158 168 163 183 188 176 157 145 134 121 109 111 117 134 142 137 133 139 149 172 187 147 128 135 118 106 13 300 72 66 50 68 76 77 62 54 54 50
153 151 141 146 152 168 189 162 186 191 184 164 165 175 137 117 111 98 99 106 124 121 128 143 185 202 191 158 148 122 104 295 290 46 51 52 69 80 69 69 63 55 51
167 167 169 172 168 178 183 157 197 189 183 164 186 183 146 129 120 86 66 100 106 100 107 146 197 198 201 189 192 173 142 304 301 24 97 98 17 48 45 51 54 59 53
183 186 185 188 193 197 188 171 193 171 166 157 174 139 117 120 129 118 107 89 90 92 107 148 168 164 174 269 247 213 183 227 247 214 226 29 317 5 7 19 18 28 34
200 201 199 201 209 211 197 171 187 176 158 166 166 143 157 184 166 155 99 89 97 108 120 138 142 171 198 223 231 203 217 222 232 236 246 14 288 261 300 325 336 338 330
207 206 204 209 212 206 200 192 203 192 194 198 196 185 202 197 174 150 125 127 122 128 138 123 101 205 215 209 178 190 226 226 234 232 232 343 295 261 251 280 298 298 295
207 205 210 211 208 204 200 206 207 205 208 207 205 204 203 200 185 194 186 181 184 184 191 183 187 209 220 224 218 226 238 242 243 236 221 270 294 287 271 268 273 282 283
208 210 205 217 210 205 203 206 208 210 210 209 207 208 206 206 205 208 205 196 208 210 213 217 225 214 219 225 232 241 246 247 250 257 233 220 268 283 281 278 277 271 273
217 217 211 208 215 207 207 208 209 211 211 213 211 211 212 213 212 209 205 201 204 211 220 224 234 237 233 232 229 238 248 250 249 251 253 213 244 259 267 271 273 272 266
221 221 216 208 213 210 210 212 212 213 214 217 217 216 216 219 218 213 212 213 216 218 223 229 237 243 245 243 240 238 244 247 250 251 255 238 224 243 251 257 263 268 268
225 225 221 214 211 211 213 214 215 214 214 216 218 218 217 219 221 218 221 220 221 224 226 230 238 242 246 246 249 252 253 254 250 250 251 253 237 230 239 249 253 257 260
231 229 226 218 216 215 216 217 215 218 217 219 218 220 218 218 220 222 224 229 229 227 229 233 239 241 243 247 248 249 251 256 258 255 250 248 249 246 233 238 245 249 252
231 230 227 219 219 216 215 219 220 222 223 224 222 223 220 218 219 220 224 227 231 233 233 236 240 244 248 248 254 257 255 254 256 256 253 250 246 245 249 240 232 243 249
240 236 233 223 222 217 210 215 221 226 227 225 226 226 224 221 221 222 227 227 225 229 231 230 237 238 241 251 256 260 263 262 261 258 255 251 249 246 248 254 247 242 240
241 236 232 226 221 213 207 206 211 224 227 227 228 230 228 225 222 220 224 227 225 227 230 230 231 236 236 237 251 260 262 259 256 253 251 251 252 249 251 255 258 264 253
249 237 232 230 224 215 212 209 215 227 229 227 227 227 226 226 224 220 222 224 223 225 231 232 233 236 240 232 230 248 269 267 250 249 250 248 248 244 243 248 252 253 258
269 258 245 240 234 225 218 215 220 228 231 232 227 226 226 228 228 226 226 226 225 224 228 227 227 227 230 226 221 225 231 246 259 223 225 231 234 234 237 248 263 254 248
327 291 266 257 251 242 229 224 223 224 232 235 235 234 228 225 226 225 226 226 225 222 226 226 224 223 226 226 216 224 239 267 261 266 242 239 249 246 249 259 253 251 250
14 350 305 272 252 240 230 227 231 237 246 250 243 238 232 225 223 225 224 224 224 224 226 226 222 220 220 216 214 210 220 231 237 252 258 250 246 248 256 257 259 258 256
22 19 13 348 310 276 247 235 231 236 242 244 240 237 234 226 220 221 220 220 222 223 226 227 225 222 218 214 217 216 215 218 214 219 239 251 253 248 248 251 254 257 246